Location: Mount Kobau Star Party
(49.1167°N, 119.7333°W)
Time: 10:20:30
(UTC-07:00)

BlueWalker 3 - Pass Details

Date: 29 February 2024
Orbit: 485 x 496 km, 53.2° (Epoch: 11 April)

Event Time Altitude Azimuth Distance (km) Brightness Sun altitude
Rises 19:53:50 0° 294° (WNW) 2,555 7.0 -22.2°
Reaches altitude 10° 19:56:02 10° 291° (WNW) 1,670 5.7 -22.6°
Enters shadow 19:59:28 57° 234° (SW) 574 2.3 -23.1°
